Location: Krasnoyarskiy Pitomnik
(51.1333°N, 71.6167°E)
Time: 23:20:14
(UTC+00:00)

Vanguard 1 - Pass Details

Date: 17 April 2024
Orbit: 651 x 3826 km, 34.2° (Epoch: 18 May)

Event Time Altitude Azimuth Distance (km) Brightness Sun altitude
Exits shadow 21:42:16 - 183° (S) 7,218 14.0 -20.0°
Reaches altitude 10° 21:45:59 10° 175° (S) 6,717 13.9 -19.7°
Maximum altitude 21:56:48 17° 144° (SE) 5,573 13.8 -18.5°
Drops below altitude 10° 22:05:40 10° 112° (ESE) 5,411 14.1 -17.6°
Sets 22:11:19 0° 94° (E) 5,843 14.7 -16.9°
